User: anonymous   Login
Location: UBC Liquid-Mirror Observatory
(49.2876°N, 122.5728°W)
Time: 21:54:26
(UTC-08:00)
Language:

KITSAT 1 - Orbit

View from above orbital plane
View from above orbital plane
View from above satellite
View from above satellite

Ground track
Ground track

The orbit data is extracted from the following two-line orbital elements,

1 22077U 92052B   16043.93113685 -.00000059 +00000-0 +10297-4 0  9994
2 22077 066.0838 273.4742 0015217 257.8585 190.5295 12.86511233103957
Epoch (UTC): 12 February 2016 22:20:50
Eccentricity: 0.0015217
inclination: 66.0838°
perigee height: 1303 km
apogee height: 1327 km
right ascension of ascending node: 273.4742°
argument of perigee: 257.8585°
revolutions per day: 12.86511233
mean anomaly at epoch: 190.5295°
orbit number at epoch: 10395

The dashed part of the orbit path shows where the satellite is in the earth's shadow,  

DLR